Location: Mercogliano
(40.9167°N, 14.7333°E)
Time: 02:51:32
(UTC+00:00)

X-37B - Pass Details

Date: 28 November 2020
Orbit: 383 x 391 km, 45.1° (Epoch: 22 January)

Event Time Altitude Azimuth Distance (km) Brightness Sun altitude
Rises 17:02:46 0° 242° (WSW) 2,252 6.0 -16.3°
Reaches altitude 10° 17:04:49 10° 240° (WSW) 1,402 4.6 -16.7°
Maximum altitude 17:07:58 73° 156° (SSE) 405 0.5 -17.3°
Enters shadow 17:08:27 57° 94° (E) 457 0.5 -17.4°
